Location: Hillern
(53.0557°N, 9.8577°E)
Time: 00:58:05
(UTC+00:00)

ATLAS 3B R/B - Pass Details

Date: 19 May 2025
Orbit: 935 x 1258 km, 63.8° (Epoch: 15 June)

Event Time Altitude Azimuth Distance (km) Brightness Sun altitude
Exits shadow 21:30:07 18° 153° (SSE) 2,567 4.0 -13.4°
Maximum altitude 21:34:03 27° 111° (ESE) 2,128 3.9 -13.6°
Drops below altitude 10° 21:40:17 10° 57° (ENE) 3,222 5.3 -14.0°
Sets 21:43:34 0° 47° (NE) 4,212 6.1 -14.2°
